Regional Weather Roundup
Issued by NWS

Home | Current Version | Previous Version | Graphics & Text | Print | Product List | Glossary On
Versions: 1 2 3 4 5 6 7 8 9 10 11 12 13 14 15 16 17 18 19 20 21 22 23 24 25 26 27 28 29 30 31 32 33 34 35 36 37 38 39 40 41 42 43 44 45 46 47 48 49 50
000
ASUS43 KDTX 211710
RWRMI
MICHIGAN HOURLY REGIONAL WEATHER ROUNDUP
NATIONAL WEATHER SERVICE DETROIT/PONTIAC MI
100 PM EDT THU AUG 21 2014

NOTE: "FAIR" INDICATES FEW OR NO CLOUDS BELOW 12,000 FEET WITH NO
SIGNIFICANT WEATHER AND/OR OBSTRUCTION TO VISIBILITY.

MIZ047>049-052>055-059>063-066>070-074>076-081>083-211800-
SOUTHEAST LOWER MICHIGAN

CITY           SKY/WX    TMP DP  RH WIND       PRES   REMARKS
ADRIAN         CLOUDY    79  68  69 SW9       30.01F
ALMA           PTSUNNY   72  64  75 E3        30.01F
ANN ARBOR      MOSUNNY   78  66  66 S5        30.00F
BAD AXE        CLOUDY    73  64  72 CALM      30.00S
CARO           MOSUNNY   73  64  73 CALM      29.99F
DETROIT CITY   PTSUNNY   78  64  61 E6        30.01S
DETROIT        CLOUDY    77  67  71 SE7       30.00F
FLINT          CLOUDY    77  63  61 E3        30.01S
GROSSE ILE     PTSUNNY   75  70  83 S7        30.00S
HILLSDALE      CLOUDY    80  69  70 S7        30.01F
HOWELL         CLOUDY    74  65  73 S5        30.00F

CITY           SKY/WX    TMP DP  RH WIND       PRES   REMARKS
JACKSON        CLOUDY    73  70  90 CALM      30.00F FOG
LAMBERTVILLE   CLOUDY    79  70  73 SW9       30.01S
LANSING        CLOUDY    75  65  70 E5        30.00F
LAPEER         PTSUNNY   73  63  70 CALM      30.01S
MASON          CLOUDY    74  68  80 CALM      30.00F
MONROE         CLOUDY    77  70  78 NW3       29.99F
MT. CLEMENS    CLOUDY    71  63  75 S6        30.01R
PONTIAC        CLOUDY    74  64  71 VRB6      30.00F
PORT HOPE        N/A     70  63  78 N3        29.98F
PORT HURON     MOSUNNY   75  66  73 CALM      29.99F
TRI CITIES     PTSUNNY   73  63  70 S5        30.01F
TROY           CLOUDY    77  65  65 E6        30.03S
SAGINAW HB     PTSUNNY   73  61  64 CALM      29.99F
$$
MIZ043>046-050>051-056>058-064>065-071>073-077>080-211800-
SOUTHWEST LOWER MICHIGAN

CITY           SKY/WX    TMP DP  RH WIND       PRES   REMARKS
BATTLE CREEK   CLOUDY    79  68  69 S6        29.99F
BENTON HARBOR  CLOUDY    80  70  71 SE5       29.94F
BIG RAPIDS     CLOUDY    74  65  73 S5        29.98F
COLDWATER      CLOUDY    78  69  72 SW3       29.99F
FREMONT        PTSUNNY   76  63  65 E6        29.97F
HOLLAND        CLOUDY    79  70  74 E3        29.95F
GRAND RAPIDS   CLOUDY    77  72  84 E6        29.97F
IONIA          CLOUDY    73  64  74 E5        29.99F
KALAMAZOO      CLOUDY    79  67  66 VRB3      29.97F
LUDINGTON      CLOUDY    74  64  70 E7        29.96F
MARSHALL       CLOUDY    78  69  74 MISG      29.98F
MOUNT PLEASANT CLOUDY    72  64  74 SE3       30.00S
MUSKEGON       CLOUDY    80  67  64 SE8       29.94F
SOUTH HAVEN    CLOUDY    79  71  78 E6        29.94F
$$
MIZ016>042-211800-
NORTHERN LOWER MICHIGAN

CITY           SKY/WX    TMP DP  RH WIND       PRES   REMARKS
ALPENA         CLOUDY    68  62  81 N6        30.00R
BEAVER ISLAND  PTSUNNY   68  62  80 CALM      29.99F
BELLAIRE       PTSUNNY   74  61  64 NE6       29.97F
CADILLAC       PTSUNNY   73  62  67 CALM      30.00R
CHARLEVOIX     MOSUNNY   70  63  78 CALM      30.00F
FRANKFORT      PTSUNNY   76  61  60 CALM      29.97F
GAYLORD        CLOUDY    67  59  75 VRB3      30.00F
GRAYLING       CLOUDY    74  63  69 E3        30.00F
HARBOR SPRINGS MOSUNNY   71  62  74 SW6       29.98F
HOUGHTON LAKE  CLOUDY    72  59  63 CALM      30.00F
MANISTEE       PTSUNNY   75  61  60 E7        29.98F
OSCODA         CLOUDY    70  63  79 CALM      29.98F
PELLSTON       CLOUDY    73  62  68 CALM      29.99F
ROGERS CITY    CLOUDY    68  65  90 NW3       30.01S
TRAVERSE CITY  PTSUNNY   72  61  68 N6        29.97F
$$
MIZ007>008-015-211800-
EASTERN UPPER MICHIGAN

CITY           SKY/WX    TMP DP  RH WIND       PRES   REMARKS
KINROSS        CLOUDY    66  64  94 CALM      29.99S
MACKINAC ISLAN CLOUDY    67  64  88 E3        29.99S
NEWBERRY       CLOUDY    70  61  74 CALM      29.98F
S. S. MARIE    CLOUDY    70  62  76 N3        29.98S
MUNISING         N/A     66  60  81 NE7       29.97F
$$
MIZ004>006-011>014-085-211800-
CENTRAL UPPER MICHIGAN

CITY           SKY/WX    TMP DP  RH WIND       PRES   REMARKS
MANISTIQUE     CLOUDY    66  62  87 SE5       29.98F
ESCANABA       CLOUDY    64  61  88 SE9       29.98F
MENOMINEE      CLOUDY    68  63  83 E8        29.98R
SAWYER-GWINN   CLOUDY    68  59  73 SE3       29.98
$$
MIZ001>003-009>011-084-211800-
WESTERN UPPER MICHIGAN

CITY           SKY/WX    TMP DP  RH WIND       PRES   REMARKS
IRON MOUNTAIN  CLOUDY    69  62  78 SE7       29.96S
HOUGHTON       CLOUDY    62  59  90 E8        29.97S
COPPER HARBOR    N/A     60  58  92 E3        29.97F
IRONWOOD       CLOUDY    72  64  78 SE8       29.90R
$$

ABBREVIATIONS USED IN REMARKS
   TC - TEMPERATURE IN CELSIUS
  WCI - WIND CHILL INDEX
   HX - HEAT INDEX
  VSB - VISIBILITY




USA.gov is the U.S. government's official web portal to all federal, state and local government web resources and services.